User: anonymous   Login
Location: Roanoke
(37.2710°N, 79.9420°W)
Time: 02:49:07
(UTC-04:00)
Language:

Cosmos 1441 Rocket - Orbit

View from above orbital plane
View from above orbital plane
View from above satellite
View from above satellite

Ground track
Ground track

The orbit data is extracted from the following two-line orbital elements,

1 13819U 83010B   15116.77811217  .00003203  00000-0  17766-3 0  9990
2 13819 081.1196 351.8268 0035005 064.5405 295.9436 15.12962654755321
Epoch (UTC): 26 April 2015 18:40:28
Eccentricity: 0.0035005
inclination: 81.1196°
perigee height: 503 km
apogee height: 551 km
right ascension of ascending node: 351.8268°
argument of perigee: 64.5405°
revolutions per day: 15.12962654
mean anomaly at epoch: 295.9436°
orbit number at epoch: 75532

The dashed part of the orbit path shows where the satellite is in the earth's shadow,  

DLR